WX4SKY Weather Reports


Display with metric or nautical units.
time (UTC)temp
F
wind
direction
speed
MPH
gust
MPH
rain 1hr
in
rain 24hr
in
rain mn
in
humidity
%
barometer
mb
20260502151606 58 0 2.0 5.0 0.00 0.10 0.10 75 1014.7
20260502123102 52 0 0.0 0.0 0.01 0.09 0.09 93 1013.7
20260502121606 52 0 0.0 0.0 0.00 0.08 0.08 93 1014.6
20260502114554 52 0 0.0 0.0 0.01 0.08 0.08 93 1013.2
20260502113054 52 0 0.0 0.0 0.02 0.08 0.08 93 1014.1
20260502111559 53 0 0.0 0.0 0.02 0.08 0.08 93 1012.6
20260502110054 53 0 0.0 0.0 0.02 0.08 0.08 93 1012.9
20260502104556 53 0 0.0 0.0 0.01 0.07 0.07 93 1013.6
20260502103104 54 0 0.0 1.0 0.00 0.06 0.06 93 1014.1
20260502101614 54 0 0.0 0.0 0.00 0.06 0.06 94 1014.1
20260502100113 55 0 0.0 0.0 0.00 0.06 0.06 94 1013.3
20260502080106 56 0 0.0 0.0 0.02 0.05 0.05 93 1013.2
20260502070052 56 0 0.0 0.0 0.03 0.03 0.03 93 1013.4
20260502064600 56 0 0.0 0.0 0.02 0.02 0.02 93 1013.7
20260502063057 56 0 0.0 0.0 0.01 0.01 0.01 93 1014.1
20260502061552 57 0 0.0 0.0 0.01 0.01 0.01 93 1014.0
20260502060108 57 0 0.0 0.0 0.00 0.00 0.00 92 1014.2
20260502054552 57 0 0.0 0.0 0.00 0.00 0.00 92 1014.2
20260502053100 57 0 0.0 0.0 0.00 0.00 0.00 92 1014.3
20260502051559 57 0 0.0 0.0 0.00 0.00 0.00 92 1014.5
20260502050058 57 0 0.0 0.0 0.00 0.00 0.00 92 1014.2
20260502044556 57 0 0.0 0.0 0.00 0.00 0.00 92 1014.3
20260502043105 57 0 0.0 0.0 0.00 0.00 0.00 92 1014.4
20260502041552 57 0 0.0 0.0 0.00 0.00 0.00 91 1014.4
20260502040054 57 0 0.0 0.0 0.00 0.00 0.00 91 1014.4
20260502034554 57 0 0.0 0.0 0.00 0.00 0.00 91 1014.7
20260502033056 58 0 0.0 0.0 0.00 0.00 0.00 91 1015.0
20260502031552 58 0 0.0 0.0 0.00 0.00 0.00 91 1015.1
20260502030056 58 0 0.0 0.0 0.00 0.00 0.00 90 1015.1
20260502024556 58 0 0.0 0.0 0.00 0.00 0.00 90 1015.0
20260502023058 58 0 0.0 0.0 0.00 0.00 0.00 90 1014.8
20260502021556 58 0 0.0 0.0 0.00 0.00 0.00 89 1014.8
20260502020056 59 0 0.0 0.0 0.00 0.00 0.00 89 1015.0
20260502014557 59 0 0.0 0.0 0.00 0.00 0.00 89 1014.7
20260502013057 59 0 0.0 0.0 0.00 0.00 0.00 89 1014.5
20260502011609 59 0 0.0 0.0 0.00 0.00 0.00 89 1014.4
20260502010055 59 0 0.0 0.0 0.00 0.00 0.00 89 1014.3
20260502004601 59 0 0.0 0.0 0.00 0.00 0.00 88 1013.7
20260502003052 60 0 0.0 0.0 0.00 0.00 0.00 88 1013.7
20260502001552 60 0 0.0 0.0 0.00 0.00 0.00 87 1013.7
20260502000110 61 0 0.0 0.0 0.00 0.00 0.00 86 1013.5
20260501234559 62 0 0.0 0.0 0.00 0.00 0.00 84 1013.4
20260501233053 62 0 0.0 0.0 0.00 0.00 0.00 83 1013.5
20260501231602 63 0 0.0 0.0 0.00 0.00 0.00 81 1013.4
20260501230056 63 0 0.0 0.0 0.00 0.00 0.00 79 1013.6
20260501224602 64 0 0.0 0.0 0.00 0.00 0.00 77 1013.5
20260501223057 64 0 0.0 0.0 0.00 0.00 0.00 76 1013.8
20260501221614 65 0 0.0 0.0 0.00 0.00 0.00 72 1013.2
20260501220055 65 0 0.0 1.0 0.00 0.00 0.00 72 1012.9
20260501214553 64 0 0.0 0.0 0.00 0.00 0.00 73 1013.2
20260501213054 64 0 0.0 0.0 0.00 0.00 0.00 74 1013.6
20260501211558 64 0 0.0 2.0 0.00 0.00 0.00 72 1014.0
20260501210051 65 81 0.0 2.0 0.00 0.00 0.00 72 1013.6
20260501204555 64 0 0.0 1.0 0.00 0.00 0.00 71 1014.0
20260501203054 64 0 0.0 0.0 0.00 0.00 0.00 72 1014.3
20260501201552 63 0 0.0 0.0 0.00 0.00 0.00 75 1014.5
20260501200053 63 0 0.0 0.0 0.00 0.00 0.00 76 1014.7
20260501194552 64 0 0.0 0.0 0.00 0.00 0.00 74 1014.8
20260501193055 64 0 0.0 1.0 0.00 0.00 0.00 69 1014.6
20260501191557 64 0 0.0 1.0 0.00 0.00 0.00 68 1014.7
20260501190111 63 0 0.0 1.0 0.00 0.00 0.00 67 1014.9
20260501184557 64 237 0.0 1.0 0.00 0.00 0.00 67 1014.8
20260501183102 65 237 0.0 2.0 0.00 0.00 0.00 64 1015.0
20260501181557 65 0 0.0 0.0 0.00 0.00 0.00 68 1015.0
20260501180057 65 0 0.0 1.0 0.00 0.00 0.00 65 1015.1
20260501174556 64 0 0.0 0.0 0.00 0.00 0.00 64 1015.0
20260501173054 63 230 0.0 4.0 0.00 0.00 0.00 65 1015.2
20260501171556 64 230 0.0 4.0 0.00 0.00 0.00 62 1015.3
20260501170059 64 0 0.0 0.0 0.00 0.00 0.00 66 1015.4
20260501164555 64 0 0.0 2.0 0.00 0.00 0.00 66 1015.4
20260501163059 64 0 0.0 1.0 0.00 0.00 0.00 66 1015.5
20260501161600 63 0 0.0 0.0 0.00 0.00 0.00 69 1015.6
20260501160113 64 0 0.0 0.0 0.00 0.00 0.00 67 1015.4